Volver al catálogo

TITAN 3C TRANSTAGE DEB

ActivoLEO
NORAD 4907·DEBRIS·🇺🇸 United States

Lanzado Oct 15, 1965 desde Cape Canaveral Space Force Station

Loading…

Próximos Pases (próximas 24 horas)

TLE

ActualizadoSource: Space-Track

Época: Sep 14, 2026, 01:01 UTC

1 04907U 65082SV  26257.04281967  .00000476  00000-0  88898-4 0  9992
2 04907  32.4838 218.2500 0045774   6.3332 353.7891 14.60615306231220

Sigue TITAN 3C TRANSTAGE DEB en tiempo real con AllMySat

Download on the App Store